Location: ????
(33.1659°N, 35.6604°E)
Time: 05:50:12
(UTC+00:00)

H-2A R/B - Pass Details

Date: 20 September 2019
Orbit: 734 x 836 km, 98.3° (Epoch: 21 October)

Event Time Altitude Azimuth Distance (km) Brightness Sun altitude
Exits shadow 18:02:04 54° 316° (NW) 898 2.5 -30.2°
Drops below altitude 10° 18:06:04 10° 342° (NNW) 2,276 4.9 -31.0°
Sets 18:08:24 0° 345° (NNW) 3,217 5.7 -31.5°
